Location: Wheeling
(40.0640°N, 80.7210°W)
Time: 08:55:04
(UTC-04:00)

KAITUO 1B - Visible Passes

Search period start: 23 October 2021 00:00
Search period end: 02 November 2021 00:00
Orbit: 488 x 510 km, 97.4° (Epoch: 22 October)

Date Brightness Start Highest point End Pass type
(mag) Time Alt. Az. Time Alt. Az. Time Alt. Az.
23 Oct ? 19:23:39 10° S 19:27:10 49° W 19:30:41 10° NNW visible
24 Oct ? 06:54:22 10° ENE 06:56:23 14° E 06:58:24 10° SE visible
24 Oct ? 19:03:37 10° SSE 19:07:13 87° ENE 19:10:51 10° N visible
25 Oct ? 20:21:05 10° W 20:21:18 10° W 20:21:31 10° W visible
26 Oct ? 19:58:41 10° SW 20:01:12 18° W 20:03:45 10° NW visible
27 Oct ? 19:37:55 10° SSW 19:41:09 31° W 19:44:26 10° NNW visible
28 Oct ? 07:07:37 10° NE 07:10:27 21° E 07:13:17 10° SE visible
28 Oct ? 19:17:36 10° S 19:21:09 60° W 19:24:45 10° NNW visible
29 Oct ? 06:48:54 10° ENE 06:50:21 12° E 06:51:49 10° ESE visible
29 Oct ? 18:57:37 10° SSE 19:01:13 71° ENE 19:04:49 10° N visible
30 Oct ? 20:13:42 10° WSW 20:15:12 12° W 20:16:42 10° WNW visible
31 Oct ? 19:52:16 10° SSW 19:55:05 21° W 19:57:55 10° NW visible
01 Nov ? 07:21:04 10° NNE 07:24:23 31° E 07:27:41 10° SSE visible
01 Nov ? 19:31:38 10° SSW 19:35:01 38° W 19:38:26 10° NNW visible
